FW5249 Weather Reports


Display with metric or nautical units.
time (UTC)temp
F
wind
direction
speed
MPH
gust
MPH
rain 1hr
in
rain 24hr
in
rain mn
in
humidity
%
barometer
mb
20260507191402 58 180 10.0 21.0 0.00 1.37 1.37 73 1000.3
20260507190344 58 225 12.0 25.0 0.00 1.37 1.37 72 1001.2
20260507185337 58 225 11.0 22.0 0.00 1.37 1.37 71 1001.3
20260507184822 59 225 11.0 21.0 0.00 1.37 1.37 71 1001.7
20260507184259 59 225 9.0 21.0 0.00 1.37 1.37 70 1002.3
20260507183239 59 270 8.0 18.0 0.00 1.37 1.37 69 1002.9
20260507182738 59 225 11.0 21.0 0.00 1.37 1.37 68 1002.7
20260507182229 59 270 14.0 22.0 0.00 1.37 1.37 68 1002.7
20260507181704 59 225 11.0 23.0 0.00 1.37 1.37 68 1002.5
20260507181155 59 270 9.0 23.0 0.00 1.37 1.37 70 1002.6
20260507180707 59 270 8.0 19.0 0.00 1.37 1.37 68 1002.9
20260507180142 59 270 11.0 18.0 0.00 1.37 1.37 68 1003.4
20260507175633 58 270 8.0 17.0 0.00 1.37 1.37 70 1003.7
20260507175118 58 270 8.0 15.0 0.00 1.37 1.37 71 1003.9
20260507174625 58 270 7.0 12.0 0.00 1.37 1.37 72 1003.9
20260507174057 58 270 7.0 13.0 0.00 1.37 1.37 72 1004.1
20260507173550 58 270 5.0 14.0 0.00 1.37 1.37 72 1003.9
20260507173047 58 270 4.0 15.0 0.00 1.37 1.37 70 1003.8
20260507172528 58 270 6.0 15.0 0.00 1.37 1.37 71 1003.8
20260507172031 58 270 7.0 19.0 0.00 1.37 1.37 72 1003.6
20260507171524 58 225 6.0 19.0 0.00 1.37 1.37 72 1003.3
20260507170957 58 270 11.0 19.0 0.00 1.37 1.37 71 1002.8
20260507165942 58 225 5.0 15.0 0.00 1.37 1.37 73 1002.0
20260507165427 58 270 6.0 17.0 0.00 1.37 1.37 74 1002.2
20260507164918 58 270 8.0 17.0 0.00 1.37 1.37 74 1002.1
20260507164417 58 270 9.0 17.0 0.00 1.37 1.37 74 1002.5
20260507163347 57 270 11.0 16.0 0.00 1.37 1.37 73 1001.7
20260507160803 58 225 8.0 18.0 0.00 1.37 1.37 75 1002.9
20260507154719 58 270 8.0 24.0 0.00 1.37 1.37 75 1003.4
20260507154210 58 225 13.0 22.0 0.00 1.37 1.37 75 1002.9
20260507153707 58 270 13.0 23.0 0.00 1.37 1.37 74 1002.9
20260507153145 58 225 11.0 23.0 0.00 1.37 1.37 74 1002.9
20260507152650 58 225 6.0 25.0 0.00 1.37 1.37 76 1002.6
20260507152126 58 270 10.0 25.0 0.00 1.37 1.37 76 1002.7
20260507151614 58 225 18.0 25.0 0.00 1.37 1.37 75 1002.7
20260507151121 58 225 14.0 23.0 0.00 1.37 1.37 76 1002.3
20260507150552 58 225 8.0 23.0 0.00 1.37 1.37 76 1002.5
20260507150057 58 225 14.0 23.0 0.00 1.37 1.37 76 1002.4
20260507145023 58 270 11.0 21.0 0.00 1.37 1.37 76 1002.2
20260507144520 58 225 11.0 22.0 0.00 1.37 1.37 79 1002.4
20260507143454 58 270 11.0 18.0 0.00 1.37 1.37 78 1002.3
20260507142439 58 225 12.0 18.0 0.00 1.37 1.37 79 1002.4
20260507141932 58 270 8.0 21.0 0.00 1.37 1.37 80 1002.7
20260507141415 58 225 11.0 21.0 0.00 1.37 1.37 80 1002.7
20260507140911 58 225 14.0 19.0 0.00 1.37 1.37 80 1002.1
20260507140358 58 270 14.0 19.0 0.00 1.37 1.37 80 1002.5
20260507135843 59 270 11.0 21.0 0.00 1.37 1.37 81 1002.5
20260507135340 59 225 12.0 21.0 0.00 1.37 1.37 83 1002.9
20260507134827 59 225 7.0 15.0 0.00 1.37 1.37 85 1002.7
20260507134319 59 225 10.0 15.0 0.00 1.37 1.37 84 1002.6
20260507133814 59 225 8.0 15.0 0.00 1.37 1.37 84 1002.6
20260507133253 59 225 8.0 14.0 0.00 1.37 1.37 84 1002.1
20260507132745 59 225 8.0 14.0 0.00 1.37 1.37 84 1002.3
20260507132239 60 225 4.0 12.0 0.00 1.37 1.37 82 1002.1
20260507131721 60 225 4.0 17.0 0.00 1.37 1.37 81 1002.2
20260507131211 60 225 7.0 17.0 0.00 1.37 1.37 81 1002.5
20260507130717 60 225 8.0 13.0 0.00 1.37 1.37 81 1002.0
20260507130149 60 225 4.0 14.0 0.00 1.37 1.37 81 1002.3
20260507125641 60 270 6.0 14.0 0.00 1.37 1.37 83 1002.6
20260507125144 60 270 6.0 13.0 0.00 1.37 1.37 83 1002.1
20260507124622 60 225 8.0 13.0 0.00 1.37 1.37 82 1002.4
20260507124113 59 270 4.0 11.0 0.00 1.37 1.37 84 1002.6
20260507123608 59 270 3.0 11.0 0.00 1.37 1.37 85 1002.5
20260507123048 59 270 6.0 15.0 0.00 1.37 1.37 86 1002.6
20260507122542 59 270 7.0 15.0 0.00 1.37 1.37 86 1003.2
20260507122038 59 0 4.0 14.0 0.00 1.37 1.37 87 1003.0
20260507121519 59 180 4.0 15.0 0.00 1.37 1.37 87 1001.4
20260507121016 59 225 8.0 15.0 0.00 1.37 1.37 86 1000.5
20260507120509 59 270 6.0 10.0 0.00 1.37 1.37 86 1001.4
20260507115950 60 270 6.0 13.0 0.00 1.37 1.37 87 1001.4
20260507114940 59 225 6.0 15.0 0.00 1.37 1.37 88 1001.8
20260507113925 60 270 9.0 17.0 0.00 1.37 1.37 89 1001.7
20260507113404 60 225 11.0 17.0 0.00 1.37 1.37 89 1001.5
20260507112850 60 180 10.0 17.0 0.00 1.37 1.37 89 1000.9
20260507112339 60 225 9.0 15.0 0.00 1.37 1.37 90 1000.4
20260507111836 60 180 5.0 15.0 0.00 1.37 1.37 90 1000.7
20260507110806 60 180 5.0 12.0 0.00 1.37 1.37 90 1001.3
20260507110315 60 225 4.0 15.0 0.00 1.37 1.37 91 1001.5
20260507105746 60 225 7.0 20.0 0.00 1.37 1.37 90 1001.8
20260507104736 59 225 9.0 21.0 0.00 1.37 1.37 91 1000.3
20260507104214 59 225 9.0 19.0 0.00 1.37 1.37 92 1000.5
20260507103715 59 180 5.0 17.0 0.00 1.37 1.37 92 1000.1
20260507102644 59 225 6.0 11.0 0.00 1.37 1.37 92 1000.9
20260507101636 59 225 3.0 15.0 0.00 1.37 1.37 93 1000.7
20260507101117 60 270 4.0 15.0 0.00 1.37 1.37 93 1000.1
20260507100608 60 225 8.0 21.0 0.00 1.37 1.37 93 1000.6
20260507100118 60 270 6.0 21.0 0.00 1.37 1.37 93 1001.4
20260507095542 60 270 9.0 21.0 0.00 1.37 1.37 94 1001.2
20260507095052 60 225 10.0 21.0 0.00 1.37 1.37 93 1000.6
20260507094527 60 225 12.0 24.0 0.00 1.37 1.37 93 1000.5
20260507094013 60 180 9.0 24.0 0.00 1.37 1.37 93 1000.6
20260507093502 60 225 13.0 25.0 0.00 1.37 1.37 93 999.7
20260507093001 60 180 14.0 25.0 0.00 1.37 1.37 94 998.7
20260507092447 60 180 15.0 21.0 0.00 1.37 1.37 94 998.9
20260507091941 60 225 13.0 21.0 0.00 1.37 1.37 94 999.2
20260507091435 60 225 10.0 19.0 0.00 1.37 1.37 94 1000.4
20260507090911 60 225 11.0 17.0 0.00 1.37 1.37 94 1000.8
20260507090411 60 225 8.0 15.0 0.00 1.37 1.37 95 1000.8
20260507085347 61 225 8.0 14.0 0.00 1.37 1.37 96 1001.1
20260507084829 61 270 5.0 11.0 0.00 1.37 1.37 96 1001.0
20260507084335 61 225 6.0 11.0 0.00 1.37 1.37 96 1000.9
20260507083305 61 225 4.0 9.0 0.00 1.37 1.37 96 1001.2
20260507082759 61 270 4.0 9.0 0.00 1.37 1.37 96 1001.1
20260507082242 61 225 5.0 9.0 0.00 1.37 1.37 96 1000.6
20260507081735 61 225 5.0 8.0 0.00 1.37 1.37 96 1000.3
20260507081227 61 270 4.0 8.0 0.00 1.37 1.37 97 1000.5
20260507080711 61 225 5.0 8.0 0.01 1.37 1.37 97 1000.6
20260507080207 61 225 4.0 8.0 0.01 1.37 1.37 97 1000.8
20260507075657 61 225 2.0 8.0 0.01 1.37 1.37 97 1001.1
20260507075145 61 270 3.0 8.0 0.01 1.37 1.37 98 1001.4
20260507074635 62 270 4.0 8.0 0.01 1.37 1.37 98 1001.6
20260507074131 62 225 4.0 8.0 0.01 1.37 1.37 98 1001.6
20260507073614 62 270 4.0 8.0 0.01 1.37 1.37 98 1002.0
20260507073058 62 270 4.0 13.0 0.01 1.37 1.37 98 1001.8
20260507071032 62 225 8.0 13.0 0.01 1.37 1.37 98 1000.4
20260507070511 62 225 2.0 4.0 0.00 1.36 1.36 98 1000.4
20260507065959 62 270 2.0 3.0 0.00 1.36 1.36 98 1000.2
20260507065455 62 0 1.0 4.0 0.00 1.36 1.36 98 1000.2
20260507064940 62 315 2.0 4.0 0.00 1.36 1.36 98 1000.6
20260507063923 62 270 0.0 4.0 0.00 1.36 1.36 99 1000.4
20260507063413 62 270 2.0 4.0 0.01 1.36 1.36 98 1000.0
20260507062858 62 0 0.0 4.0 0.01 1.36 1.36 99 999.4
20260507062354 62 0 1.0 8.0 0.01 1.36 1.36 98 999.7
20260507061841 62 0 1.0 8.0 0.01 1.36 1.36 98 1000.0
20260507061332 62 0 2.0 8.0 0.02 1.36 1.36 98 1000.6
20260507060824 62 0 2.0 8.0 0.04 1.36 1.36 98 1000.4
20260507060308 62 0 4.0 8.0 0.06 1.36 1.36 98 999.4
20260507055759 62 180 2.0 8.0 0.06 1.36 1.36 99 997.9
20260507055254 62 90 4.0 8.0 0.07 1.36 1.36 98 998.7
20260507054737 63 0 2.0 4.0 0.07 1.36 1.36 99 1001.0
20260507054224 63 0 2.0 11.0 0.09 1.36 1.36 99 1001.2
20260507053730 62 90 2.0 11.0 0.11 1.36 1.36 99 1001.1
20260507053207 62 90 5.0 8.0 0.12 1.35 1.35 99 1001.0
20260507052658 62 180 4.0 7.0 0.12 1.35 1.35 99 1001.0
20260507051635 62 90 3.0 8.0 0.15 1.35 1.35 99 1002.2
20260507051123 62 45 2.0 8.0 0.24 1.32 1.32 99 1003.3
20260507050633 62 0 2.0 15.0 0.34 1.31 1.31 99 1003.1
20260507045600 62 180 11.0 17.0 0.58 1.30 1.30 98 1000.9
20260507045103 62 180 6.0 11.0 0.72 1.29 1.29 98 1001.1
20260507044544 62 180 3.0 14.0 1.03 1.28 1.29 99 1001.7
20260507044023 62 180 5.0 17.0 1.16 1.26 1.26 99 1001.2
20260507043004 62 180 10.0 21.0 1.23 1.23 1.23 98 999.8
20260507042455 62 180 8.0 21.0 1.22 1.22 1.22 98 1000.8
20260507041950 62 180 11.0 17.0 1.20 1.20 1.20 98 1000.7
20260507041439 62 135 4.0 22.0 1.18 1.18 1.18 98 1001.7
20260507040924 62 180 7.0 22.0 1.02 1.02 1.03 98 1000.9
20260507035913 63 135 11.0 26.0 0.83 0.83 0.86 98 1000.6
20260507035358 63 180 9.0 30.0 0.65 0.65 0.65 98 1001.2
20260507034848 65 180 21.0 30.0 0.53 0.53 0.53 97 1000.7
20260507034333 69 180 14.0 36.0 0.18 0.18 0.20 96 1001.5
20260507033319 76 270 18.0 34.0 0.00 0.00 0.00 81 1000.3
20260507032253 77 270 5.0 24.0 0.00 0.00 0.00 85 999.2
20260507031757 77 270 11.0 24.0 0.00 0.00 0.00 83 998.9
20260507031231 78 270 11.0 20.0 0.00 0.00 0.00 81 999.0
20260507030224 78 270 8.0 27.0 0.00 0.00 0.00 79 998.5
20260507025703 78 270 12.0 29.0 0.00 0.00 0.00 79 998.2
20260507025155 78 0 15.0 29.0 0.00 0.00 0.00 79 997.8
20260507024137 78 315 17.0 27.0 0.00 0.00 0.00 79 998.2
20260507023636 78 315 11.0 28.0 0.00 0.00 0.00 78 998.3
20260507023122 78 315 17.0 28.0 0.00 0.00 0.00 78 998.5
20260507022611 78 315 13.0 28.0 0.00 0.00 0.00 79 998.8
20260507021546 78 315 15.0 28.0 0.00 0.00 0.00 78 999.0
20260507021034 78 315 13.0 23.0 0.00 0.00 0.00 78 998.9
20260507020531 78 315 11.0 26.0 0.00 0.00 0.00 79 998.8
20260507020028 78 0 15.0 26.0 0.00 0.00 0.00 79 998.9
20260507015501 78 315 11.0 27.0 0.00 0.00 0.00 79 998.8
20260507014958 78 315 12.0 27.0 0.00 0.00 0.00 79 998.6
20260507014457 78 315 15.0 26.0 0.00 0.00 0.00 79 998.6
20260507013421 78 0 10.0 27.0 0.00 0.00 0.00 80 998.6
20260507012421 78 0 15.0 28.0 0.00 0.00 0.00 79 998.7
20260507011850 78 0 15.0 30.0 0.00 0.00 0.00 79 998.8
20260507011346 78 0 11.0 30.0 0.00 0.00 0.00 79 999.1
20260507010833 78 315 12.0 24.0 0.00 0.00 0.00 78 999.3
20260507010322 79 315 7.0 27.0 0.00 0.00 0.00 78 999.5
20260507005827 79 315 10.0 32.0 0.00 0.00 0.00 78 999.6
20260507005259 79 315 8.0 32.0 0.00 0.00 0.00 77 999.5
20260507004750 79 0 11.0 21.0 0.00 0.00 0.00 77 999.4
20260507004243 79 0 10.0 29.0 0.00 0.00 0.00 77 999.4
20260507003731 79 0 8.0 29.0 0.00 0.00 0.00 77 999.1
20260507003218 79 0 9.0 23.0 0.00 0.00 0.00 76 999.5
20260507002724 79 315 8.0 24.0 0.00 0.00 0.00 76 999.7
20260507002158 79 0 12.0 24.0 0.00 0.00 0.00 76 999.6
20260506235641 79 270 8.0 26.0 0.00 0.00 0.00 76 999.1
20260506235100 79 315 11.0 23.0 0.00 0.00 0.00 76 999.1
20260506234042 79 315 11.0 26.0 0.00 0.00 0.00 77 999.4
20260506233529 79 315 15.0 25.0 0.00 0.00 0.00 77 999.0
20260506233021 79 0 7.0 21.0 0.00 0.00 0.00 77 999.3
20260506232525 79 315 10.0 20.0 0.00 0.00 0.00 76 999.2
20260506232032 79 0 9.0 20.0 0.00 0.00 0.00 76 999.5
20260506230944 79 0 6.0 17.0 0.00 0.00 0.00 76 999.9
20260506230447 80 0 6.0 16.0 0.00 0.00 0.00 76 999.8
20260506225919 80 315 8.0 16.0 0.00 0.00 0.00 76 999.8
20260506225410 80 0 5.0 19.0 0.00 0.00 0.00 75 999.8
20260506224905 80 0 4.0 19.0 0.00 0.00 0.00 75 999.8
20260506224350 80 0 4.0 15.0 0.00 0.00 0.00 75 999.9
20260506223846 80 0 4.0 14.0 0.00 0.00 0.00 75 999.7
20260506223334 80 0 7.0 17.0 0.00 0.00 0.00 74 999.7
20260506222821 81 0 6.0 17.0 0.00 0.00 0.00 74 999.7
20260506221803 81 0 8.0 17.0 0.00 0.00 0.00 73 999.8
20260506221244 81 0 8.0 17.0 0.00 0.00 0.00 72 999.8
20260506220233 81 0 6.0 15.0 0.00 0.00 0.00 72 1000.0
20260506215717 82 0 7.0 15.0 0.00 0.00 0.00 71 1000.3
20260506215211 82 0 8.0 17.0 0.00 0.00 0.00 71 1000.2
20260506214654 82 45 6.0 17.0 0.00 0.00 0.00 71 1000.4
20260506214145 82 0 6.0 14.0 0.00 0.00 0.00 71 1000.4
20260506213639 82 0 8.0 11.0 0.00 0.00 0.00 71 1000.6
20260506213128 82 0 7.0 10.0 0.00 0.00 0.00 70 1000.7
20260506212108 83 0 5.0 14.0 0.00 0.00 0.00 70 1001.1
20260506211554 83 0 6.0 14.0 0.00 0.00 0.00 70 1000.7
20260506211042 83 0 8.0 11.0 0.00 0.00 0.00 69 1000.8
20260506210036 83 0 7.0 12.0 0.00 0.00 0.00 69 1001.1
20260506205518 83 0 4.0 11.0 0.00 0.00 0.00 69 1001.2
20260506204457 84 0 4.0 13.0 0.00 0.00 0.00 69 1001.4
20260506203441 84 0 4.0 14.0 0.00 0.00 0.00 68 1001.5
20260506202926 85 0 4.0 14.0 0.00 0.00 0.00 67 1001.5
20260506202416 85 0 4.0 12.0 0.00 0.00 0.00 67 1001.6
20260506201912 85 0 9.0 12.0 0.00 0.00 0.00 67 1001.5
20260506201352 85 0 5.0 16.0 0.00 0.00 0.00 67 1001.5
20260506200847 85 0 5.0 16.0 0.00 0.00 0.00 67 1001.3
20260506200340 86 0 9.0 18.0 0.00 0.00 0.00 67 1001.1
20260506195832 86 0 8.0 18.0 0.00 0.00 0.00 66 1001.0
20260506195315 86 0 5.0 17.0 0.00 0.00 0.00 66 1001.0
20260506194800 86 0 4.0 11.0 0.00 0.00 0.00 65 1001.3
20260506194258 86 0 5.0 11.0 0.00 0.00 0.00 66 1001.3
20260506193741 85 0 6.0 11.0 0.00 0.00 0.00 65 1001.4
20260506193238 85 315 6.0 11.0 0.00 0.00 0.00 66 1001.3
20260506192718 85 0 8.0 13.0 0.00 0.00 0.00 68 1001.3
20260506192223 85 0 5.0 13.0 0.00 0.00 0.00 68 1001.7